| time (UTC) | temp F | wind direction | speed MPH | gust MPH | rain 1hr in | rain 24hr in | rain mn in | humidity % | barometer mb |
| 20260902185004 | 70 | 167 | 1.0 | 7.0 | 0.00 | 0.00 | 0.00 | 96 | 1019.6 |
| 20260902184504 | 70 | 166 | 1.0 | 12.0 | 0.00 | 0.00 | 0.00 | 95 | 1019.8 |
| 20260902184004 | 70 | 164 | 3.0 | 12.0 | 0.00 | 0.00 | 0.00 | 96 | 1019.9 |
| 20260902183504 | 70 | 161 | 3.0 | 13.0 | 0.00 | 0.00 | 0.00 | 96 | 1019.8 |
| 20260902183004 | 70 | 163 | 3.0 | 13.0 | 0.00 | 0.00 | 0.00 | 96 | 1019.9 |
| 20260902182504 | 70 | 161 | 1.0 | 7.0 | 0.00 | 0.00 | 0.00 | 97 | 1020.0 |
| 20260902182025 | 70 | 165 | 1.0 | 4.0 | 0.00 | 0.00 | 0.00 | 97 | 1020.2 |
| 20260902181504 | 70 | 171 | 3.0 | 7.0 | 0.00 | 0.00 | 0.00 | 97 | 1020.4 |
| 20260902181004 | 70 | 170 | 3.0 | 9.0 | 0.00 | 0.00 | 0.00 | 96 | 1020.5 |
| 20260902180504 | 70 | 164 | 3.0 | 9.0 | 0.00 | 0.00 | 0.00 | 96 | 1020.6 |
| 20260902180006 | 70 | 157 | 3.0 | 7.0 | 0.00 | 0.00 | 0.00 | 96 | 1020.7 |
| 20260902175525 | 70 | 163 | 3.0 | 9.0 | 0.00 | 0.00 | 0.00 | 97 | 1020.8 |
| 20260902175004 | 70 | 164 | 3.0 | 9.0 | 0.00 | 0.00 | 0.00 | 96 | 1020.9 |
| 20260902174525 | 70 | 160 | 3.0 | 10.0 | 0.00 | 0.00 | 0.00 | 96 | 1020.9 |
| 20260902174025 | 70 | 159 | 3.0 | 10.0 | 0.00 | 0.00 | 0.00 | 96 | 1020.9 |
| 20260902173504 | 70 | 167 | 3.0 | 10.0 | 0.00 | 0.00 | 0.00 | 96 | 1021.1 |
| 20260902173004 | 70 | 164 | 3.0 | 10.0 | 0.00 | 0.00 | 0.00 | 96 | 1021.1 |
| 20260902172525 | 70 | 162 | 3.0 | 7.0 | 0.00 | 0.00 | 0.00 | 96 | 1020.9 |
| 20260902172004 | 70 | 167 | 3.0 | 7.0 | 0.00 | 0.00 | 0.00 | 97 | 1021.0 |
| 20260902171525 | 70 | 167 | 3.0 | 13.0 | 0.00 | 0.00 | 0.00 | 97 | 1021.1 |
| 20260902171004 | 70 | 164 | 3.0 | 13.0 | 0.00 | 0.00 | 0.00 | 97 | 1020.9 |
| 20260902170504 | 70 | 162 | 1.0 | 7.0 | 0.00 | 0.00 | 0.00 | 97 | 1021.0 |
| 20260902170004 | 70 | 166 | 1.0 | 7.0 | 0.00 | 0.00 | 0.00 | 97 | 1020.9 |
| 20260902165504 | 70 | 165 | 3.0 | 7.0 | 0.00 | 0.00 | 0.00 | 97 | 1020.9 |
| 20260902165004 | 70 | 169 | 3.0 | 7.0 | 0.00 | 0.00 | 0.00 | 97 | 1020.9 |
| 20260902164504 | 70 | 176 | 1.0 | 4.0 | 0.00 | 0.00 | 0.00 | 98 | 1020.9 |
| 20260902164004 | 70 | 171 | 1.0 | 7.0 | 0.00 | 0.00 | 0.00 | 98 | 1020.6 |
| 20260902163504 | 70 | 172 | 1.0 | 7.0 | 0.00 | 0.00 | 0.00 | 97 | 1020.7 |
| 20260902163004 | 70 | 175 | 3.0 | 9.0 | 0.00 | 0.00 | 0.00 | 97 | 1020.6 |
| 20260902162504 | 70 | 171 | 3.0 | 9.0 | 0.00 | 0.00 | 0.00 | 98 | 1020.4 |
| 20260902162004 | 70 | 167 | 3.0 | 10.0 | 0.00 | 0.00 | 0.00 | 97 | 1020.3 |
| 20260902161504 | 70 | 167 | 3.0 | 10.0 | 0.00 | 0.00 | 0.00 | 98 | 1020.6 |
| 20260902161025 | 70 | 164 | 3.0 | 6.0 | 0.00 | 0.00 | 0.00 | 98 | 1020.7 |
| 20260902160504 | 70 | 169 | 1.0 | 6.0 | 0.00 | 0.00 | 0.00 | 98 | 1020.9 |
| 20260902160006 | 70 | 167 | 1.0 | 7.0 | 0.00 | 0.00 | 0.00 | 98 | 1021.0 |
| 20260902155504 | 70 | 173 | 1.0 | 7.0 | 0.00 | 0.00 | 0.00 | 98 | 1020.9 |
| 20260902155004 | 70 | 195 | 1.0 | 6.0 | 0.00 | 0.00 | 0.00 | 97 | 1020.9 |
| 20260902154504 | 70 | 183 | 1.0 | 9.0 | 0.00 | 0.00 | 0.00 | 97 | 1021.1 |
| 20260902154004 | 70 | 164 | 3.0 | 9.0 | 0.00 | 0.00 | 0.00 | 97 | 1020.9 |
| 20260902153504 | 70 | 167 | 3.0 | 9.0 | 0.00 | 0.00 | 0.00 | 97 | 1020.7 |
| 20260902153004 | 70 | 169 | 4.0 | 13.0 | 0.00 | 0.00 | 0.00 | 97 | 1020.7 |
| 20260902152504 | 70 | 172 | 3.0 | 13.0 | 0.00 | 0.00 | 0.00 | 97 | 1020.6 |
| 20260902152004 | 70 | 172 | 1.0 | 9.0 | 0.00 | 0.00 | 0.00 | 98 | 1020.7 |
| 20260902151504 | 70 | 162 | 3.0 | 9.0 | 0.00 | 0.00 | 0.00 | 97 | 1020.7 |
| 20260902151004 | 70 | 158 | 3.0 | 7.0 | 0.00 | 0.00 | 0.00 | 98 | 1020.6 |
| 20260902150504 | 70 | 161 | 1.0 | 6.0 | 0.00 | 0.00 | 0.00 | 98 | 1020.5 |
| 20260902150004 | 70 | 166 | 3.0 | 9.0 | 0.00 | 0.00 | 0.00 | 98 | 1020.6 |
| 20260902145525 | 70 | 167 | 3.0 | 9.0 | 0.00 | 0.00 | 0.00 | 98 | 1020.6 |
| 20260902145004 | 70 | 165 | 3.0 | 6.0 | 0.00 | 0.00 | 0.00 | 98 | 1020.6 |
| 20260902144504 | 70 | 161 | 1.0 | 6.0 | 0.00 | 0.00 | 0.00 | 98 | 1020.7 |
| 20260902144004 | 70 | 160 | 1.0 | 6.0 | 0.00 | 0.00 | 0.00 | 98 | 1020.8 |
| 20260902143504 | 70 | 167 | 1.0 | 6.0 | 0.00 | 0.00 | 0.00 | 98 | 1021.0 |
| 20260902143004 | 70 | 165 | 3.0 | 7.0 | 0.00 | 0.00 | 0.00 | 98 | 1021.0 |
| 20260902142504 | 70 | 170 | 1.0 | 7.0 | 0.00 | 0.00 | 0.00 | 98 | 1021.0 |
| 20260902142025 | 70 | 167 | 1.0 | 6.0 | 0.00 | 0.00 | 0.00 | 99 | 1021.1 |
| 20260902141504 | 70 | 159 | 1.0 | 4.0 | 0.00 | 0.00 | 0.00 | 99 | 1021.1 |
| 20260902141025 | 70 | 156 | 1.0 | 4.0 | 0.00 | 0.00 | 0.00 | 99 | 1021.0 |
| 20260902140504 | 70 | 155 | 3.0 | 7.0 | 0.00 | 0.00 | 0.00 | 99 | 1021.1 |
| 20260902140004 | 70 | 161 | 3.0 | 7.0 | 0.00 | 0.00 | 0.00 | 99 | 1021.0 |
| 20260902135504 | 70 | 168 | 3.0 | 7.0 | 0.00 | 0.00 | 0.00 | 99 | 1020.9 |
| 20260902135004 | 70 | 165 | 1.0 | 7.0 | 0.00 | 0.00 | 0.00 | 99 | 1020.9 |
| 20260902134525 | 70 | 156 | 1.0 | 4.0 | 0.00 | 0.00 | 0.00 | 99 | 1021.0 |
| 20260902134004 | 70 | 156 | 1.0 | 4.0 | 0.00 | 0.00 | 0.00 | 99 | 1021.0 |
| 20260902133504 | 71 | 153 | 1.0 | 6.0 | 0.00 | 0.00 | 0.00 | 99 | 1020.8 |
| 20260902133004 | 70 | 153 | 3.0 | 6.0 | 0.00 | 0.00 | 0.00 | 99 | 1020.8 |
| 20260902132504 | 70 | 160 | 3.0 | 6.0 | 0.00 | 0.00 | 0.00 | 99 | 1020.7 |
| 20260902132004 | 71 | 163 | 3.0 | 6.0 | 0.00 | 0.00 | 0.00 | 100 | 1020.7 |
| 20260902131503 | 71 | 163 | 1.0 | 6.0 | 0.00 | 0.00 | 0.00 | 100 | 1020.6 |
| 20260902131004 | 70 | 167 | 1.0 | 9.0 | 0.00 | 0.00 | 0.00 | 100 | 1020.7 |
| 20260902130504 | 71 | 167 | 3.0 | 9.0 | 0.00 | 0.03 | 0.00 | 100 | 1020.5 |
| 20260902130025 | 71 | 166 | 3.0 | 9.0 | 0.00 | 0.04 | 0.00 | 100 | 1020.3 |
| 20260902125503 | 71 | 164 | 3.0 | 9.0 | 0.00 | 0.08 | 0.00 | 100 | 1020.2 |
| 20260902125004 | 71 | 168 | 3.0 | 7.0 | 0.00 | 0.09 | 0.00 | 100 | 1020.3 |
| 20260902124504 | 70 | 169 | 1.0 | 6.0 | 0.00 | 0.09 | 0.00 | 100 | 1020.1 |
| 20260902124004 | 70 | 166 | 1.0 | 6.0 | 0.00 | 0.09 | 0.00 | 100 | 1020.0 |
| 20260902123525 | 70 | 169 | 3.0 | 6.0 | 0.00 | 0.09 | 0.00 | 100 | 1020.0 |
| 20260902123004 | 70 | 171 | 1.0 | 6.0 | 0.00 | 0.09 | 0.00 | 100 | 1019.9 |
| 20260902122525 | 70 | 177 | 1.0 | 6.0 | 0.00 | 0.09 | 0.00 | 100 | 1019.7 |
| 20260902122004 | 70 | 185 | 1.0 | 3.0 | 0.00 | 0.09 | 0.00 | 100 | 1019.8 |
| 20260902121504 | 70 | 185 | 0.0 | 3.0 | 0.00 | 0.09 | 0.00 | 100 | 1019.8 |
| 20260902121004 | 70 | 185 | 0.0 | 3.0 | 0.00 | 0.09 | 0.00 | 100 | 1019.7 |
| 20260902120503 | 70 | 185 | 0.0 | 1.0 | 0.00 | 0.10 | 0.00 | 100 | 1019.7 |
| 20260902120004 | 70 | 185 | 0.0 | 1.0 | 0.00 | 0.10 | 0.00 | 100 | 1019.9 |
| 20260902115504 | 70 | 185 | 0.0 | 1.0 | 0.00 | 0.10 | 0.00 | 100 | 1019.9 |
| 20260902115004 | 70 | 185 | 0.0 | 1.0 | 0.00 | 0.10 | 0.00 | 100 | 1019.9 |
| 20260902114503 | 70 | 185 | 0.0 | 1.0 | 0.00 | 0.10 | 0.00 | 100 | 1020.0 |
| 20260902114004 | 70 | 185 | 1.0 | 1.0 | 0.00 | 0.10 | 0.00 | 100 | 1019.9 |
| 20260902113503 | 70 | 185 | 0.0 | 1.0 | 0.00 | 0.10 | 0.00 | 100 | 1019.9 |
| 20260902113025 | 70 | 185 | 0.0 | 3.0 | 0.00 | 0.10 | 0.00 | 100 | 1020.0 |
| 20260902112503 | 70 | 185 | 1.0 | 3.0 | 0.00 | 0.10 | 0.00 | 100 | 1019.8 |
| 20260902112003 | 70 | 185 | 0.0 | 3.0 | 0.00 | 0.10 | 0.00 | 100 | 1019.8 |
| 20260902111503 | 70 | 185 | 0.0 | 1.0 | 0.00 | 0.10 | 0.00 | 100 | 1019.9 |
| 20260902111004 | 70 | 185 | 0.0 | 1.0 | 0.00 | 0.10 | 0.00 | 100 | 1019.8 |
| 20260902110503 | 70 | 185 | 0.0 | 1.0 | 0.00 | 0.10 | 0.00 | 100 | 1019.8 |
| 20260902110024 | 70 | 185 | 1.0 | 3.0 | 0.00 | 0.10 | 0.00 | 100 | 1019.9 |
| 20260902105504 | 70 | 185 | 1.0 | 3.0 | 0.00 | 0.10 | 0.00 | 100 | 1019.9 |
| 20260902105004 | 70 | 185 | 1.0 | 3.0 | 0.00 | 0.10 | 0.00 | 100 | 1019.9 |
| 20260902104504 | 70 | 180 | 0.0 | 3.0 | 0.00 | 0.10 | 0.00 | 100 | 1019.9 |
| 20260902104024 | 70 | 163 | 0.0 | 1.0 | 0.00 | 0.10 | 0.00 | 100 | 1019.9 |
| 20260902103503 | 70 | 158 | 0.0 | 3.0 | 0.00 | 0.10 | 0.00 | 100 | 1019.9 |
| 20260902103003 | 69 | 172 | 0.0 | 6.0 | 0.00 | 0.10 | 0.00 | 100 | 1020.1 |
| 20260902102503 | 69 | 181 | 0.0 | 6.0 | 0.00 | 0.10 | 0.00 | 100 | 1020.0 |
| 20260902102004 | 69 | 184 | 0.0 | 1.0 | 0.00 | 0.10 | 0.00 | 100 | 1020.0 |
| 20260902101503 | 69 | 184 | 0.0 | 1.0 | 0.00 | 0.10 | 0.00 | 100 | 1019.9 |
| 20260902101025 | 69 | 184 | 0.0 | 1.0 | 0.00 | 0.10 | 0.00 | 100 | 1019.8 |
| 20260902100503 | 69 | 184 | 0.0 | 1.0 | 0.00 | 0.10 | 0.00 | 100 | 1019.7 |
| 20260902100004 | 70 | 184 | 0.0 | 1.0 | 0.00 | 0.10 | 0.00 | 100 | 1019.6 |
| 20260902095503 | 70 | 184 | 0.0 | 1.0 | 0.00 | 0.10 | 0.00 | 100 | 1019.7 |
| 20260902095003 | 70 | 184 | 0.0 | 3.0 | 0.00 | 0.10 | 0.00 | 100 | 1019.5 |
| 20260902094503 | 70 | 184 | 0.0 | 3.0 | 0.00 | 0.10 | 0.00 | 100 | 1019.5 |
| 20260902094024 | 70 | 184 | 0.0 | 1.0 | 0.00 | 0.10 | 0.00 | 100 | 1019.5 |
| 20260902093503 | 70 | 184 | 0.0 | 1.0 | 0.00 | 0.11 | 0.00 | 100 | 1019.5 |
| 20260902093003 | 70 | 184 | 0.0 | 1.0 | 0.00 | 0.11 | 0.00 | 100 | 1019.4 |
| 20260902092503 | 70 | 184 | 0.0 | 1.0 | 0.00 | 0.11 | 0.00 | 100 | 1019.5 |
| 20260902092003 | 70 | 184 | 0.0 | 1.0 | 0.00 | 0.11 | 0.00 | 100 | 1019.3 |
| 20260902091503 | 69 | 184 | 0.0 | 1.0 | 0.00 | 0.11 | 0.00 | 100 | 1019.4 |
| 20260902091003 | 69 | 184 | 0.0 | 1.0 | 0.00 | 0.11 | 0.00 | 100 | 1019.4 |
| 20260902090524 | 70 | 184 | 0.0 | 1.0 | 0.00 | 0.11 | 0.00 | 100 | 1019.4 |
| 20260902090004 | 70 | 184 | 0.0 | 1.0 | 0.00 | 0.11 | 0.00 | 100 | 1019.3 |
| 20260902085503 | 70 | 184 | 0.0 | 1.0 | 0.00 | 0.11 | 0.00 | 100 | 1019.4 |
| 20260902085003 | 70 | 184 | 0.0 | 1.0 | 0.00 | 0.11 | 0.00 | 100 | 1019.4 |
| 20260902084524 | 70 | 184 | 0.0 | 1.0 | 0.00 | 0.11 | 0.00 | 100 | 1019.5 |
| 20260902084003 | 69 | 184 | 0.0 | 1.0 | 0.00 | 0.11 | 0.00 | 100 | 1019.5 |
| 20260902083503 | 69 | 184 | 0.0 | 1.0 | 0.00 | 0.11 | 0.00 | 100 | 1019.4 |
| 20260902083003 | 69 | 184 | 0.0 | 1.0 | 0.00 | 0.11 | 0.00 | 100 | 1019.3 |
| 20260902082503 | 69 | 0 | 0.0 | 0.0 | 0.00 | 0.11 | 0.00 | 99 | 1019.3 |
| 20260902082003 | 69 | 149 | 0.0 | 6.0 | 0.00 | 0.11 | 0.00 | 99 | 1019.3 |
| 20260902081503 | 69 | 149 | 0.0 | 6.0 | 0.00 | 0.11 | 0.00 | 99 | 1019.1 |
| 20260902081003 | 69 | 147 | 0.0 | 1.0 | 0.00 | 0.11 | 0.00 | 99 | 1019.0 |
| 20260902080503 | 69 | 147 | 0.0 | 1.0 | 0.00 | 0.11 | 0.00 | 99 | 1019.1 |
| 20260902080003 | 69 | 147 | 0.0 | 1.0 | 0.00 | 0.11 | 0.00 | 99 | 1019.1 |
| 20260902075503 | 69 | 147 | 0.0 | 1.0 | 0.00 | 0.11 | 0.00 | 99 | 1019.1 |
| 20260902075003 | 69 | 147 | 0.0 | 1.0 | 0.00 | 0.11 | 0.00 | 99 | 1019.1 |
| 20260902074503 | 69 | 147 | 0.0 | 1.0 | 0.00 | 0.11 | 0.00 | 99 | 1019.1 |
| 20260902074003 | 69 | 147 | 0.0 | 1.0 | 0.00 | 0.11 | 0.00 | 99 | 1019.1 |
| 20260902073524 | 69 | 147 | 0.0 | 1.0 | 0.00 | 0.11 | 0.00 | 99 | 1019.2 |
| 20260902073003 | 69 | 0 | 0.0 | 0.0 | 0.00 | 0.11 | 0.00 | 99 | 1019.2 |
| 20260902072503 | 69 | 0 | 0.0 | 0.0 | 0.00 | 0.11 | 0.00 | 99 | 1019.3 |
| 20260902072003 | 69 | 0 | 0.0 | 0.0 | 0.00 | 0.11 | 0.00 | 99 | 1019.2 |
| 20260902071524 | 69 | 0 | 0.0 | 0.0 | 0.00 | 0.11 | 0.00 | 99 | 1019.2 |
| 20260902071003 | 69 | 147 | 0.0 | 1.0 | 0.00 | 0.11 | 0.00 | 99 | 1019.2 |
| 20260902070503 | 69 | 147 | 0.0 | 1.0 | 0.00 | 0.11 | 0.00 | 99 | 1019.1 |
| 20260902070004 | 69 | 0 | 0.0 | 0.0 | 0.00 | 0.11 | 0.00 | 99 | 1019.2 |
| 20260902065503 | 69 | 0 | 0.0 | 0.0 | 0.00 | 0.11 | 0.00 | 99 | 1019.2 |
| 20260902065003 | 69 | 0 | 0.0 | 0.0 | 0.00 | 0.11 | 0.00 | 99 | 1019.2 |
| 20260902064503 | 69 | 0 | 0.0 | 0.0 | 0.00 | 0.11 | 0.00 | 99 | 1019.3 |
| 20260902064003 | 69 | 147 | 0.0 | 1.0 | 0.00 | 0.11 | 0.00 | 99 | 1019.2 |
| 20260902063503 | 69 | 147 | 0.0 | 1.0 | 0.00 | 0.11 | 0.00 | 99 | 1019.2 |
| 20260902063003 | 69 | 0 | 0.0 | 0.0 | 0.00 | 0.11 | 0.00 | 99 | 1019.2 |
| 20260902062524 | 69 | 0 | 0.0 | 0.0 | 0.00 | 0.11 | 0.00 | 99 | 1019.2 |
| 20260902062003 | 69 | 0 | 0.0 | 0.0 | 0.00 | 0.11 | 0.00 | 99 | 1019.3 |
| 20260902061503 | 69 | 0 | 0.0 | 0.0 | 0.00 | 0.11 | 0.00 | 99 | 1019.2 |
| 20260902061003 | 70 | 147 | 0.0 | 1.0 | 0.00 | 0.11 | 0.00 | 99 | 1019.3 |
| 20260902060503 | 70 | 147 | 0.0 | 3.0 | 0.00 | 0.11 | 0.00 | 99 | 1019.3 |
| 20260902060003 | 70 | 147 | 0.0 | 3.0 | 0.00 | 0.11 | 0.00 | 99 | 1019.4 |
| 20260902055524 | 70 | 147 | 0.0 | 3.0 | 0.00 | 0.11 | 0.00 | 99 | 1019.3 |
| 20260902055003 | 70 | 147 | 0.0 | 1.0 | 0.00 | 0.11 | 0.00 | 99 | 1019.2 |
| 20260902054503 | 70 | 147 | 0.0 | 3.0 | 0.00 | 0.11 | 0.00 | 99 | 1019.2 |
| 20260902054003 | 70 | 147 | 0.0 | 3.0 | 0.00 | 0.11 | 0.00 | 99 | 1019.3 |
| 20260902053524 | 70 | 147 | 0.0 | 1.0 | 0.00 | 0.11 | 0.00 | 99 | 1019.4 |
| 20260902053003 | 70 | 147 | 0.0 | 1.0 | 0.00 | 0.11 | 0.00 | 99 | 1019.3 |
| 20260902052503 | 70 | 147 | 0.0 | 1.0 | 0.00 | 0.11 | 0.00 | 99 | 1019.3 |
| 20260902052003 | 70 | 0 | 0.0 | 0.0 | 0.00 | 0.11 | 0.00 | 99 | 1019.4 |
| 20260902051503 | 70 | 0 | 0.0 | 0.0 | 0.00 | 0.11 | 0.00 | 99 | 1019.4 |
| 20260902051024 | 70 | 0 | 0.0 | 0.0 | 0.00 | 0.11 | 0.00 | 99 | 1019.2 |
| 20260902050503 | 70 | 147 | 0.0 | 1.0 | 0.00 | 0.11 | 0.00 | 99 | 1019.2 |
| 20260902050024 | 70 | 147 | 0.0 | 1.0 | 0.00 | 0.11 | 0.00 | 99 | 1019.1 |
| 20260902045503 | 70 | 147 | 0.0 | 1.0 | 0.00 | 0.11 | 0.00 | 99 | 1019.2 |
| 20260902045003 | 71 | 147 | 1.0 | 3.0 | 0.00 | 0.11 | 0.00 | 99 | 1019.2 |
| 20260902044503 | 71 | 147 | 0.0 | 3.0 | 0.00 | 0.11 | 0.00 | 99 | 1019.4 |
| 20260902044024 | 71 | 147 | 0.0 | 1.0 | 0.00 | 0.11 | 0.00 | 99 | 1019.3 |
| 20260902043503 | 71 | 147 | 0.0 | 1.0 | 0.00 | 0.11 | 0.00 | 99 | 1019.3 |
| 20260902043024 | 71 | 147 | 0.0 | 1.0 | 0.00 | 0.11 | 0.00 | 99 | 1019.3 |
| 20260902042503 | 71 | 147 | 0.0 | 1.0 | 0.00 | 0.11 | 0.00 | 99 | 1019.2 |
| 20260902042003 | 71 | 147 | 0.0 | 1.0 | 0.00 | 0.11 | 0.00 | 99 | 1019.1 |
| 20260902041524 | 71 | 147 | 0.0 | 1.0 | 0.00 | 0.11 | 0.00 | 99 | 1019.0 |
| 20260902041003 | 71 | 0 | 0.0 | 0.0 | 0.00 | 0.11 | 0.00 | 99 | 1018.8 |
| 20260902040503 | 72 | 0 | 0.0 | 0.0 | 0.00 | 0.11 | 0.00 | 99 | 1018.7 |
| 20260902040004 | 72 | 147 | 0.0 | 1.0 | 0.00 | 0.11 | 0.00 | 99 | 1018.6 |
| 20260902035526 | 72 | 147 | 0.0 | 1.0 | 0.00 | 0.11 | 0.11 | 99 | 1018.6 |
| 20260902035005 | 72 | 147 | 0.0 | 1.0 | 0.00 | 0.11 | 0.11 | 99 | 1018.4 |
| 20260902034505 | 72 | 147 | 0.0 | 1.0 | 0.00 | 0.11 | 0.11 | 99 | 1018.3 |
| 20260902034005 | 72 | 147 | 0.0 | 1.0 | 0.00 | 0.11 | 0.11 | 99 | 1018.5 |
| 20260902033505 | 72 | 147 | 0.0 | 1.0 | 0.00 | 0.11 | 0.11 | 99 | 1018.5 |
| 20260902033005 | 72 | 147 | 0.0 | 1.0 | 0.00 | 0.11 | 0.11 | 99 | 1018.4 |
| 20260902032505 | 72 | 147 | 0.0 | 1.0 | 0.00 | 0.11 | 0.11 | 99 | 1018.4 |
| 20260902032026 | 72 | 147 | 0.0 | 1.0 | 0.00 | 0.11 | 0.11 | 99 | 1018.4 |
| 20260902031505 | 72 | 147 | 0.0 | 1.0 | 0.00 | 0.11 | 0.11 | 99 | 1018.3 |
| 20260902031005 | 72 | 147 | 1.0 | 1.0 | 0.00 | 0.11 | 0.11 | 99 | 1018.2 |
| 20260902030505 | 72 | 147 | 0.0 | 1.0 | 0.00 | 0.11 | 0.11 | 99 | 1018.0 |
| 20260902030026 | 72 | 147 | 0.0 | 1.0 | 0.00 | 0.11 | 0.11 | 99 | 1018.0 |
| 20260902025504 | 72 | 147 | 0.0 | 1.0 | 0.00 | 0.11 | 0.11 | 99 | 1017.9 |
| 20260902025005 | 72 | 147 | 0.0 | 1.0 | 0.00 | 0.11 | 0.11 | 99 | 1017.9 |
| 20260902024505 | 73 | 147 | 0.0 | 1.0 | 0.00 | 0.12 | 0.11 | 99 | 1017.8 |
| 20260902024005 | 73 | 147 | 0.0 | 1.0 | 0.00 | 0.12 | 0.11 | 99 | 1017.7 |
| 20260902023505 | 73 | 147 | 0.0 | 1.0 | 0.00 | 0.13 | 0.11 | 98 | 1017.8 |
| 20260902023005 | 73 | 0 | 0.0 | 0.0 | 0.00 | 0.13 | 0.11 | 98 | 1017.7 |
| 20260902022505 | 73 | 0 | 0.0 | 0.0 | 0.00 | 0.14 | 0.11 | 98 | 1017.6 |
| 20260902022005 | 73 | 0 | 0.0 | 0.0 | 0.00 | 0.14 | 0.11 | 98 | 1017.5 |
| 20260902021504 | 73 | 0 | 0.0 | 0.0 | 0.00 | 0.14 | 0.11 | 98 | 1017.6 |
| 20260902021026 | 73 | 0 | 0.0 | 0.0 | 0.00 | 0.14 | 0.11 | 98 | 1017.7 |
| 20260902020504 | 73 | 0 | 0.0 | 0.0 | 0.00 | 0.14 | 0.11 | 98 | 1017.7 |
| 20260902020005 | 73 | 0 | 0.0 | 0.0 | 0.00 | 0.14 | 0.11 | 98 | 1017.7 |
| 20260902015526 | 74 | 0 | 0.0 | 0.0 | 0.00 | 0.14 | 0.11 | 98 | 1017.7 |
| 20260902015005 | 74 | 0 | 0.0 | 0.0 | 0.00 | 0.14 | 0.11 | 98 | 1017.6 |
| 20260902014505 | 74 | 0 | 0.0 | 0.0 | 0.00 | 0.14 | 0.11 | 98 | 1017.6 |
| 20260902014005 | 74 | 147 | 0.0 | 1.0 | 0.00 | 0.14 | 0.11 | 99 | 1017.6 |
| 20260902013505 | 74 | 147 | 0.0 | 1.0 | 0.00 | 0.14 | 0.11 | 98 | 1017.6 |
| 20260902013005 | 74 | 147 | 0.0 | 1.0 | 0.00 | 0.14 | 0.11 | 98 | 1017.6 |
| 20260902012526 | 74 | 147 | 0.0 | 1.0 | 0.00 | 0.14 | 0.11 | 98 | 1017.7 |
| 20260902012005 | 74 | 147 | 0.0 | 3.0 | 0.00 | 0.14 | 0.11 | 98 | 1017.7 |
| 20260902011505 | 74 | 154 | 1.0 | 3.0 | 0.00 | 0.14 | 0.11 | 98 | 1017.8 |
| 20260902011005 | 74 | 162 | 0.0 | 4.0 | 0.00 | 0.14 | 0.11 | 98 | 1017.8 |
| 20260902010526 | 74 | 171 | 0.0 | 4.0 | 0.00 | 0.14 | 0.11 | 98 | 1017.7 |
| 20260902010005 | 74 | 0 | 0.0 | 0.0 | 0.00 | 0.14 | 0.11 | 98 | 1017.8 |
| 20260902005504 | 74 | 0 | 0.0 | 0.0 | 0.00 | 0.14 | 0.11 | 97 | 1017.7 |
| 20260902005004 | 74 | 0 | 0.0 | 0.0 | 0.00 | 0.14 | 0.11 | 97 | 1017.6 |
| 20260902004525 | 74 | 0 | 0.0 | 0.0 | 0.00 | 0.14 | 0.11 | 98 | 1017.4 |
| 20260902004004 | 75 | 0 | 0.0 | 0.0 | 0.00 | 0.14 | 0.11 | 98 | 1017.0 |
| 20260902003504 | 75 | 0 | 0.0 | 0.0 | 0.00 | 0.14 | 0.11 | 98 | 1016.9 |
| 20260902003026 | 75 | 0 | 0.0 | 0.0 | 0.00 | 0.14 | 0.11 | 97 | 1016.7 |
| 20260902002526 | 75 | 0 | 0.0 | 0.0 | 0.00 | 0.14 | 0.11 | 97 | 1016.5 |
| 20260902002004 | 75 | 0 | 0.0 | 0.0 | 0.00 | 0.14 | 0.11 | 97 | 1016.4 |
| 20260902001504 | 75 | 0 | 0.0 | 0.0 | 0.00 | 0.14 | 0.11 | 97 | 1016.2 |
| 20260902001005 | 75 | 0 | 0.0 | 0.0 | 0.00 | 0.14 | 0.11 | 97 | 1016.3 |
| 20260902000526 | 75 | 0 | 0.0 | 0.0 | 0.00 | 0.14 | 0.11 | 97 | 1016.1 |
| 20260902000026 | 75 | 0 | 0.0 | 0.0 | 0.00 | 0.14 | 0.11 | 97 | 1016.3 |
| 20260901235504 | 75 | 0 | 0.0 | 0.0 | 0.00 | 0.14 | 0.11 | 97 | 1016.2 |
| 20260901235025 | 75 | 0 | 0.0 | 0.0 | 0.00 | 0.14 | 0.11 | 96 | 1016.5 |
| 20260901234504 | 75 | 0 | 0.0 | 0.0 | 0.00 | 0.14 | 0.11 | 96 | 1016.4 |
| 20260901234004 | 75 | 0 | 0.0 | 0.0 | 0.00 | 0.14 | 0.11 | 96 | 1016.4 |
| 20260901233525 | 75 | 0 | 0.0 | 0.0 | 0.00 | 0.14 | 0.11 | 96 | 1016.6 |
| 20260901233005 | 75 | 0 | 0.0 | 0.0 | 0.00 | 0.14 | 0.11 | 96 | 1016.7 |
| 20260901232525 | 75 | 0 | 0.0 | 0.0 | 0.00 | 0.14 | 0.11 | 95 | 1016.6 |
| 20260901232026 | 76 | 0 | 0.0 | 0.0 | 0.00 | 0.14 | 0.11 | 95 | 1016.6 |
| 20260901231504 | 76 | 0 | 0.0 | 0.0 | 0.00 | 0.14 | 0.11 | 95 | 1016.4 |
| 20260901231004 | 76 | 0 | 0.0 | 0.0 | 0.00 | 0.14 | 0.11 | 95 | 1016.4 |
| 20260901230504 | 76 | 0 | 0.0 | 0.0 | 0.00 | 0.14 | 0.11 | 96 | 1016.6 |
| 20260901230005 | 76 | 0 | 0.0 | 0.0 | 0.00 | 0.14 | 0.11 | 95 | 1016.5 |
| 20260901225525 | 76 | 0 | 0.0 | 0.0 | 0.00 | 0.14 | 0.11 | 95 | 1016.5 |
| 20260901225004 | 76 | 0 | 0.0 | 0.0 | 0.00 | 0.14 | 0.11 | 95 | 1016.7 |
| 20260901224504 | 76 | 0 | 0.0 | 0.0 | 0.00 | 0.14 | 0.11 | 95 | 1017.0 |
| 20260901224025 | 76 | 300 | 0.0 | 1.0 | 0.00 | 0.14 | 0.11 | 95 | 1016.8 |
| 20260901223504 | 76 | 300 | 0.0 | 1.0 | 0.00 | 0.14 | 0.11 | 95 | 1016.7 |
| 20260901223005 | 76 | 300 | 0.0 | 1.0 | 0.00 | 0.14 | 0.11 | 94 | 1016.9 |
| 20260901222505 | 76 | 300 | 0.0 | 1.0 | 0.00 | 0.14 | 0.11 | 94 | 1017.0 |
| 20260901222005 | 76 | 300 | 0.0 | 1.0 | 0.00 | 0.14 | 0.11 | 94 | 1016.8 |
| 20260901221504 | 76 | 300 | 0.0 | 1.0 | 0.00 | 0.14 | 0.11 | 95 | 1016.7 |
| 20260901221025 | 76 | 305 | 0.0 | 1.0 | 0.00 | 0.14 | 0.11 | 95 | 1016.4 |
| 20260901220525 | 77 | 312 | 0.0 | 1.0 | 0.00 | 0.14 | 0.11 | 94 | 1016.2 |
| 20260901220004 | 77 | 312 | 0.0 | 1.0 | 0.00 | 0.14 | 0.11 | 94 | 1015.7 |
| 20260901215504 | 77 | 312 | 0.0 | 1.0 | 0.00 | 0.14 | 0.11 | 94 | 1015.7 |
| 20260901215004 | 77 | 318 | 0.0 | 1.0 | 0.00 | 0.15 | 0.11 | 94 | 1015.8 |
| 20260901214504 | 77 | 328 | 0.0 | 1.0 | 0.00 | 0.15 | 0.11 | 94 | 1015.8 |
| 20260901214025 | 77 | 0 | 0.0 | 0.0 | 0.00 | 0.15 | 0.11 | 93 | 1015.6 |
| 20260901213504 | 77 | 5 | 0.0 | 1.0 | 0.00 | 0.17 | 0.11 | 94 | 1015.7 |
| 20260901213004 | 78 | 5 | 0.0 | 1.0 | 0.00 | 0.23 | 0.11 | 94 | 1015.8 |
| 20260901212504 | 78 | 5 | 0.0 | 1.0 | 0.00 | 0.24 | 0.11 | 93 | 1015.8 |
| 20260901212004 | 78 | 0 | 0.0 | 0.0 | 0.00 | 0.24 | 0.11 | 93 | 1015.8 |
| 20260901211525 | 78 | 5 | 0.0 | 1.0 | 0.00 | 0.24 | 0.11 | 94 | 1015.9 |
| 20260901211004 | 78 | 355 | 0.0 | 3.0 | 0.00 | 0.24 | 0.11 | 93 | 1016.1 |
| 20260901210504 | 78 | 20 | 0.0 | 3.0 | 0.00 | 0.24 | 0.11 | 93 | 1016.2 |
| 20260901210004 | 78 | 33 | 1.0 | 6.0 | 0.00 | 0.24 | 0.11 | 93 | 1015.8 |
| 20260901205504 | 78 | 22 | 1.0 | 6.0 | 0.00 | 0.24 | 0.11 | 92 | 1015.7 |
| 20260901205004 | 78 | 16 | 0.0 | 3.0 | 0.00 | 0.24 | 0.11 | 93 | 1015.6 |
| 20260901204504 | 78 | 23 | 0.0 | 3.0 | 0.00 | 0.24 | 0.11 | 93 | 1015.6 |
| 20260901204004 | 79 | 355 | 0.0 | 1.0 | 0.00 | 0.24 | 0.11 | 92 | 1015.8 |
| 20260901203504 | 79 | 348 | 0.0 | 3.0 | 0.00 | 0.24 | 0.11 | 91 | 1015.8 |
| 20260901203004 | 79 | 345 | 0.0 | 3.0 | 0.00 | 0.24 | 0.11 | 91 | 1015.8 |
| 20260901202504 | 80 | 15 | 0.0 | 3.0 | 0.00 | 0.24 | 0.11 | 90 | 1015.9 |
| 20260901202004 | 80 | 24 | 0.0 | 3.0 | 0.00 | 0.24 | 0.11 | 89 | 1016.0 |
| 20260901201504 | 81 | 10 | 0.0 | 3.0 | 0.00 | 0.24 | 0.11 | 89 | 1016.0 |
| 20260901201004 | 82 | 345 | 0.0 | 1.0 | 0.00 | 0.24 | 0.11 | 88 | 1016.0 |
| 20260901200504 | 82 | 345 | 0.0 | 1.0 | 0.00 | 0.24 | 0.11 | 87 | 1016.0 |
| 20260901200004 | 82 | 345 | 0.0 | 1.0 | 0.00 | 0.24 | 0.11 | 85 | 1016.1 |
| 20260901195504 | 82 | 345 | 0.0 | 1.0 | 0.00 | 0.24 | 0.11 | 85 | 1015.9 |
| 20260901195025 | 83 | 348 | 0.0 | 3.0 | 0.00 | 0.24 | 0.11 | 85 | 1016.0 |
| 20260901194525 | 83 | 1 | 0.0 | 3.0 | 0.00 | 0.24 | 0.11 | 82 | 1016.1 |
| 20260901194004 | 84 | 6 | 0.0 | 1.0 | 0.00 | 0.24 | 0.11 | 83 | 1016.2 |
| 20260901193504 | 83 | 328 | 0.0 | 3.0 | 0.00 | 0.24 | 0.11 | 84 | 1016.2 |
| 20260901193004 | 83 | 177 | 1.0 | 6.0 | 0.00 | 0.24 | 0.11 | 81 | 1016.1 |
| 20260901192504 | 84 | 166 | 1.0 | 6.0 | 0.00 | 0.24 | 0.11 | 85 | 1016.2 |
| 20260901192004 | 84 | 259 | 0.0 | 4.0 | 0.00 | 0.24 | 0.11 | 84 | 1016.3 |
| 20260901191504 | 84 | 296 | 0.0 | 3.0 | 0.00 | 0.24 | 0.11 | 80 | 1016.2 |
| 20260901191025 | 84 | 152 | 0.0 | 3.0 | 0.00 | 0.24 | 0.11 | 83 | 1016.3 |
| 20260901190504 | 84 | 101 | 0.0 | 1.0 | 0.00 | 0.24 | 0.11 | 86 | 1016.3 |
| 20260901190025 | 84 | 57 | 0.0 | 1.0 | 0.00 | 0.24 | 0.11 | 85 | 1016.4 |
| 20260901185504 | 83 | 158 | 0.0 | 3.0 | 0.00 | 0.24 | 0.11 | 87 | 1016.3 |